• Join FlightAware (Why Join?)
  • Login
  • US Flag 
03:45AM EST


 

Airport Tracker/Info


-or-


 

Live Flight TrackerFlight Track Log ✈ SWA906 ✈ 24-Jul-2014 ✈ KBWI - MKJS / MBJ

Flight Track Log - Related Links

Times and Time Zones

All times are in EDT time to prevent confusion due to time zone crossing. See the SWA906 flight status page for this flight to view local times or setup timezone preferences in your user account.

Time Position Orientation Groundspeed Altitude Reporting Facility
EDT Latitude Longitude Course Direction KTS MPH feet Rate Location/Type
10:12AM 39.1500 -76.7500 142° Southeast 220 253 2,000  Level Potomac TRACON
10:13AM 39.1000 -76.7000 142° Southeast 251 289 4,400 2,529 Climbing Potomac TRACON
10:14AM 39.0333 -76.6333 142° Southeast 297 342 7,100 3,050 Climbing Potomac TRACON
10:15AM 38.9667 -76.5667 142° Southeast 308 354 10,500 2,600 Climbing Potomac TRACON
10:16AM 38.8833 -76.5333 163° South 358 412 12,300 1,846 Climbing Potomac TRACON
10:17AM 38.8500 -76.5233 167° South 344 396 13,300 1,085 Climbing Washington Center
10:18AM 38.7494 -76.5328 184° South 385 443 14,000 1,317 Climbing Washington Center
10:19AM 38.7075 -76.6767 250° West 363 418 16,000 2,323 Climbing Washington Center
10:20AM 38.6733 -76.7983 250° West 387 445 18,800 1,440 Climbing Washington Center
10:21AM 38.5697 -76.7992 180° South 400 460 19,000 1,161 Climbing Washington Center
10:22AM 38.4533 -76.7719 170° South 419 482 21,200 2,129 Climbing Washington Center
10:23AM 38.3419 -76.7444 169° South 409 471 23,400 1,872 Climbing Washington Center
10:24AM 38.2161 -76.7111 168° South 417 480 25,100 1,536 Climbing Washington Center
10:25AM 38.0989 -76.6806 168° South 430 495 26,600 1,296 Climbing Washington Center
10:26AM 37.9783 -76.6503 169° South 439 505 27,800 1,584 Climbing Washington Center
10:27AM 37.8331 -76.6289 173° South 441 507 29,900 1,645 Climbing Washington Center
10:28AM 37.7119 -76.6197 177° South 437 503 31,200 1,296 Climbing Washington Center
10:29AM 37.5944 -76.6525 192° South 435 501 32,600 1,415 Climbing Washington Center
10:30AM 37.4769 -76.6819 191° South 431 496 34,100 1,392 Climbing Washington Center
10:31AM 37.3603 -76.7144 192° South 428 493 35,500 1,296 Climbing Washington Center
10:32AM 37.2447 -76.7469 193° South 426 490 36,800 1,210 Climbing Washington Center
10:33AM 37.1092 -76.7844 192° South 420 483 38,000 585 Climbing Washington Center
10:34AM 36.9972 -76.8158 193° South 415 478 38,000  Level Washington Center
10:35AM 36.8844 -76.8458 192° South 415 478 38,000  Level Washington Center
10:36AM 36.7719 -76.8767 192° South 415 478 38,000  Level Washington Center
10:37AM 36.6606 -76.9064 192° South 414 476 38,000  Level Washington Center
10:39AM 36.5272 -76.9425 192° South 414 476 38,000  Level Washington Center
10:40AM 36.4122 -76.9742 192° South 414 476 38,000  Level Washington Center
10:41AM 36.2983 -76.9939 188° South 414 476 38,000  Level Washington Center
10:44AM 35.9489 -77.0203 195° South 421 484 38,000  Level Washington Center
10:45AM 35.8103 -77.0339 185° South 420 483 38,000  Level Washington Center
10:46AM 35.6997 -77.0736 196° South 416 479 38,000  Level Washington Center
10:47AM 35.5778 -77.1111 194° South 416 479 38,000  Level Washington Center
10:48AM 35.4661 -77.1494 196° South 416 479 38,000  Level Washington Center
10:49AM 35.3544 -77.1892 196° South 416 479 38,000  Level Washington Center
10:50AM 35.2406 -77.2269 195° South 418 481 38,000  Level Washington Center
10:51AM 35.1275 -77.2650 195° South 418 481 38,000  Level Washington Center
10:52AM 35.0153 -77.3042 196° South 418 481 38,000  Level Washington Center
10:53AM 34.8797 -77.3492 195° South 418 481 38,000  Level Washington Center
10:54AM 34.7681 -77.3856 195° South 419 482 38,000  Level Washington Center
10:55AM 34.6561 -77.4233 196° South 418 481 38,000  Level Washington Center
10:56AM 34.5444 -77.4589 195° South 417 480 38,000  Level Washington Center
10:57AM 34.4297 -77.4831 190° South 417 480 38,000  Level Washington Center
10:58AM 34.3147 -77.5075 190° South 417 480 38,000  Level Washington Center
10:59AM 34.1753 -77.5392 191° South 417 480 38,000  Level Washington Center
11:00AM 34.1092 -77.5481 186° South 419 482 38,000  Level Jacksonville Center
11:01AM 34.0058 -77.5719 191° South 442 509 38,000  Level Jacksonville Center
11:02AM 33.8881 -77.5992 191° South 442 509 38,000  Level Jacksonville Center
11:03AM 33.7722 -77.6211 189° South 442 509 38,000  Level Jacksonville Center
11:04AM 33.6525 -77.6508 192° South 442 509 38,000  Level Jacksonville Center
11:05AM 33.5347 -77.6778 191° South 442 509 38,000  Level Jacksonville Center
11:06AM 33.4186 -77.7019 190° South 442 509 38,000  Level Jacksonville Center
11:07AM 33.3050 -77.7258 190° South 431 496 38,000  Level Jacksonville Center
11:08AM 33.1892 -77.7500 190° South 431 496 38,000  Level Jacksonville Center
11:09AM 33.0753 -77.7739 190° South 426 490 38,000  Level Jacksonville Center
11:10AM 32.9553 -77.8006 191° South 426 490 38,000  Level Jacksonville Center
11:11AM 32.8394 -77.8244 190° South 426 490 38,000  Level Jacksonville Center
11:12AM 32.7236 -77.8506 191° South 426 490 38,000  Level Jacksonville Center
11:13AM 32.6056 -77.8769 191° South 431 496 38,000  Level Jacksonville Center
11:14AM 32.4897 -77.9031 191° South 431 496 38,000  Level Jacksonville Center
11:15AM 32.3739 -77.9267 190° South 426 490 38,000  Level Jacksonville Center
11:16AM 32.2558 -77.9478 189° South 426 490 38,000  Level Jacksonville Center
11:17AM 32.1422 -77.9783 193° South 426 490 38,000  Level Jacksonville Center
11:18AM 32.0264 -78.0042 191° South 426 490 38,000  Level Jacksonville Center
11:19AM 31.9083 -78.0278 190° South 426 490 38,000  Level Jacksonville Center
11:20AM 31.7881 -78.0486 188° South 431 496 38,000  Level Jacksonville Center
11:21AM 31.6656 -78.0722 189° South 436 502 38,000  Level Jacksonville Center
11:22AM 31.5456 -78.0978 190° South 442 509 38,000 250 Level Jacksonville Center
11:23AM 31.4256 -78.1258 191° South 442 509 38,500 650 Climbing Jacksonville Center
11:24AM 31.3053 -78.1492 189° South 447 514 39,300 750 Climbing Jacksonville Center
11:25AM 31.1856 -78.1794 192° South 447 514 40,000 350 Climbing Jacksonville Center
11:26AM 31.0672 -78.2000 188° South 447 514 40,000  Level Jacksonville Center
11:27AM 30.9353 -78.2428 196° South 452 520 40,000  Level Jacksonville Center
11:28AM 30.8231 -78.2603 188° South 432 497 40,000  Level Jacksonville Center
11:29AM 30.7111 -78.2803 189° South 438 504 40,000 -50 Level Jacksonville Center
11:30AM 30.5792 -78.3231 196° South 447 514 39,900  Descending Jacksonville Center
11:31AM 30.4611 -78.3503 191° South 442 509 40,000 35 Climbing Jacksonville Center
11:33AM 30.2414 -78.3650 183° South 436 502 40,000  Level Miami Center
11:34AM 30.1183 -78.3789 186° South 440 506 40,000  Level Miami Center
11:35AM 29.9950 -78.3892 184° South 441 507 40,000  Level Miami Center
11:36AM 29.8719 -78.3981 184° South 442 509 40,000  Level Miami Center
11:37AM 29.7506 -78.4089 184° South 441 507 40,000  Level Miami Center
11:38AM 29.6050 -78.4228 185° South 440 506 40,000  Level Miami Center
11:39AM 29.4842 -78.4347 185° South 438 504 40,000  Level Miami Center
11:40AM 29.3636 -78.4464 185° South 437 503 40,000  Level Miami Center
11:41AM 29.2433 -78.4558 184° South 434 499 40,000  Level Miami Center
11:42AM 29.1228 -78.4672 185° South 434 499 40,000  Level Miami Center
11:43AM 29.0028 -78.4778 184° South 434 499 40,000  Level Miami Center
11:44AM 28.8589 -78.4906 184° South 434 499 40,000  Level Miami Center
11:45AM 28.7386 -78.5022 185° South 434 499 40,000  Level Miami Center
11:46AM 28.6192 -78.5136 185° South 433 498 40,000  Level Miami Center
11:47AM 28.4989 -78.5236 184° South 433 498 40,000  Level Miami Center
11:48AM 28.3778 -78.5353 185° South 433 498 40,000  Level Miami Center
11:49AM 28.2581 -78.5458 184° South 433 498 40,000  Level Miami Center
11:50AM 28.1211 -78.5578 184° South 433 498 40,000  Level Miami Center
11:51AM 28.0008 -78.5689 185° South 433 498 40,000  Level Miami Center
11:52AM 27.8811 -78.5808 185° South 433 498 40,000  Level Miami Center
11:53AM 27.7356 -78.5947 185° South 434 499 40,000  Level Miami Center
11:54AM 27.6144 -78.6044 184° South 434 499 40,000  Level Miami Center
11:55AM 27.4939 -78.6153 185° South 435 501 40,000  Level Miami Center
11:56AM 27.3728 -78.6258 184° South 434 499 40,000  Level Miami Center
11:57AM 27.2531 -78.6367 185° South 433 498 40,000  Level Miami Center
11:59AM 27.1339 -78.6469 184° South 432 497 40,000  Level Miami Center
12:00PM 26.9908 -78.6583 184° South 430 495 40,000  Level Miami Center
12:01PM 26.8744 -78.6697 185° South 425 489 40,000  Level Miami Center
12:02PM 26.7569 -78.6808 185° South 424 488 40,000  Level Miami Center
12:03PM 26.6481 -78.6892 184° South 432 497 40,000  Level Miami Center
12:04PM 26.5039 -78.7044 185° South 436 502 40,000  Level Miami Center
12:05PM 26.3828 -78.7239 188° South 435 501 40,000  Level Miami Center
12:06PM 26.2669 -78.7408 187° South 428 493 40,000  Level Miami Center
12:07PM 26.1503 -78.7578 187° South 425 489 40,000  Level Miami Center
12:08PM 26.0333 -78.7750 188° South 424 488 40,000  Level Miami Center
12:09PM 25.8919 -78.7953 187° South 425 489 40,000  Level Miami Center
12:10PM 25.7747 -78.8125 188° South 425 489 40,000  Level Miami Center
12:11PM 25.6531 -78.8294 187° South 425 489 40,000 -192 Level Miami Center
12:12PM 25.5225 -78.8439 186° South 426 490 39,600 -480 Descending Miami Center
12:13PM 25.4039 -78.8456 181° South 426 490 39,000 -290 Descending Miami Center
12:14PM 25.2872 -78.8469 181° South 424 488 39,000  Level Miami Center
12:15PM 25.1558 -78.8494 181° South 424 488 39,000  Level Miami Center
12:16PM 25.0367 -78.8525 181° South 426 490 39,000  Level Miami Center
12:17PM 24.9167 -78.8533 180° South 426 490 39,000  Level Miami Center
12:18PM 24.7992 -78.8561 181° South 426 490 39,000  Level Miami Center
12:19PM 24.6658 -78.8575 181° South 426 490 39,000  Level Miami Center
12:20PM 24.5469 -78.8600 181° South 427 491 39,000  Level Miami Center
12:21PM 24.4272 -78.8619 181° South 427 491 39,000  Level Miami Center
12:22PM 24.2942 -78.8650 181° South 430 495 39,000  Level Miami Center
12:23PM 24.1750 -78.8658 180° South 429 494 39,000  Level Miami Center
12:24PM 24.0550 -78.8678 181° South 428 493 39,000  Level Miami Center
12:26PM 23.9315 -78.8483 179° South  Level FlightAware Approximate
12:33PM 23.1446 -78.8284 179° South  Level FlightAware Approximate
12:34PM 23.0322 -78.8256 179° South  Level FlightAware Approximate
12:35PM 22.9198 -78.8228 179° South  Level FlightAware Approximate
12:36PM 22.8074 -78.8200 179° South  Level FlightAware Approximate
12:37PM 22.6949 -78.8172 179° South  Level FlightAware Approximate
12:38PM 22.5825 -78.8144 179° South  Level FlightAware Approximate
12:39PM 22.4701 -78.8116 179° South  Level FlightAware Approximate
12:40PM 22.3577 -78.8088 179° South  Level FlightAware Approximate
12:41PM 22.2453 -78.8061 179° South  Level FlightAware Approximate
12:42PM 22.1329 -78.8033 179° South  Level FlightAware Approximate
12:43PM 22.0205 -78.8005 179° South  Level FlightAware Approximate
12:44PM 21.9084 -78.8083 185° South  Level FlightAware Approximate
12:45PM 21.7963 -78.8185 185° South  Level FlightAware Approximate
12:46PM 21.6843 -78.8287 185° South  Level FlightAware Approximate
12:47PM 21.5721 -78.8367 183° South  Level FlightAware Approximate
12:48PM 21.4598 -78.8428 183° South  Level FlightAware Approximate
12:49PM 21.3475 -78.8490 183° South  Level FlightAware Approximate
12:50PM 21.2352 -78.8551 183° South  Level FlightAware Approximate
12:51PM 21.1229 -78.8613 183° South  Level FlightAware Approximate
12:52PM 21.0106 -78.8674 183° South  Level FlightAware Approximate
12:53PM 20.8983 -78.8735 183° South  Level FlightAware Approximate
12:54PM 20.7860 -78.8796 183° South  Level FlightAware Approximate
12:55PM 20.6739 -78.8881 186° South  Level FlightAware Approximate
12:56PM 20.5620 -78.9003 183° South  Level FlightAware Approximate
12:57PM 20.4498 -78.9073 183° South  Level FlightAware Approximate
12:58PM 20.3375 -78.9144 183° South  Level FlightAware Approximate
12:59PM 20.2253 -78.9214 183° South  Level FlightAware Approximate
01:00PM 20.1130 -78.9284 183° South  Level FlightAware Approximate
01:01PM 20.0007 -78.9333 180° South  Level FlightAware Approximate
01:02PM 19.9055 -78.8759 148° Southeast  Level FlightAware Approximate
01:03PM 19.8103 -78.8124 148° Southeast  Level FlightAware Approximate
01:04PM 19.7156 -78.7479 147° Southeast  Level FlightAware Approximate
01:05PM 19.6214 -78.6827 147° Southeast  Level FlightAware Approximate
01:06PM 19.5273 -78.6175 147° Southeast  Level FlightAware Approximate
01:07PM 19.4333 -78.5520 147° Southeast  Level FlightAware Approximate
01:08PM 19.3393 -78.4866 147° Southeast  Level FlightAware Approximate
01:09PM 19.2453 -78.4212 147° Southeast  Level FlightAware Approximate
01:10PM 19.1516 -78.3554 145° Southeast  Level FlightAware Approximate
01:11PM 19.0599 -78.2866 145° Southeast  Level FlightAware Approximate
01:12PM 18.9649 -78.2231 149° Southeast  Level FlightAware Approximate
01:13PM 18.8685 -78.1618 149° Southeast  Level FlightAware Approximate
01:14PM 18.7732 -78.0988 148° Southeast  Level FlightAware Approximate
01:15PM 18.6766 -78.0383 155° Southeast  Level FlightAware Approximate
01:16PM 18.5881 -77.9660 145° Southeast  Level FlightAware Approximate
01:17PM 18.5037 -77.9134 145° Southeast  Level Estimated
01:18PM 18.5037 -77.9134 145° Southeast  Level Estimated
01:19PM 18.5037 -77.9134 145° Southeast  Level Estimated
01:20PM 18.5037 -77.9134 145° Southeast  Level Estimated
01:21PM 18.5037 -77.9134 145° Southeast  Level Estimated
01:22PM 18.5037 -77.9134 145° Southeast  Level Estimated
01:23PM 18.5037 -77.9134 145° Southeast  Level Estimated
01:24PM 18.5037 -77.9134 145° Southeast  Level Estimated
01:25PM 18.5037 -77.9134 145° Southeast  Level Estimated
01:26PM 18.5037 -77.9134 145° Southeast  Level Estimated
01:27PM 18.5037 -77.9134 145° Southeast  Level Estimated
01:28PM 18.5037 -77.9134 145° Southeast  Level Estimated
01:29PM 18.5037 -77.9134 145° Southeast  Level Estimated
01:30PM 18.5037 -77.9134 145° Southeast  Level Estimated
01:31PM 18.5037 -77.9134 145° Southeast  Level Estimated
01:32PM 18.5037 -77.9134 145° Southeast  Level Estimated
01:33PM 18.5037 -77.9134 145° Southeast  Level Estimated
01:34PM 18.5037 -77.9134 145° Southeast  Level Estimated
01:35PM 18.5037 -77.9134 145° Southeast  Level Estimated